Location: Devore Heights
(34.2372°N, 117.4156°W)
Time: 08:15:01
(UTC+00:00)

Altair - Pass Details

Date: 17 September 2024
Orbit: 1501 x 1682 km, 47.2° (Epoch: 07 October)

Event Time Altitude Azimuth Distance (km) Brightness Sun altitude
Rises 06:34:39 0° 178° (S) 4,750 - -50.2°
Reaches altitude 10° 06:39:10 10° 159° (SSE) 3,805 - -50.7°
Maximum altitude 06:44:50 17° 122° (ESE) 3,309 - -51.1°
Drops below altitude 10° 06:50:35 10° 86° (E) 3,894 - -51.6°
Sets 06:55:14 0° 69° (ENE) 4,909 - -52.0°
